Regional Weather Roundup
Issued by NWS

Home | Current Version | Previous Version | Graphics & Text | Print | Product List | Glossary On
Versions: 1 2 3 4 5 6 7 8 9 10 11 12 13 14 15 16 17 18 19 20 21 22 23 24 25 26 27 28 29 30 31 32 33 34 35 36 37 38 39 40 41 42 43 44 45 46 47 48 49 50
000
ASUS43 KFSD 190402
RWRSD

WEATHER ROUNDUP FOR SOUTH DAKOTA
NATIONAL WEATHER SERVICE SIOUX FALLS SD
1000 PM CST THU DEC 18 2014

NOTE: "FAIR" INDICATES FEW OR NO CLOUDS BELOW 12,000 FEET WITH NO
SIGNIFICANT WEATHER AND/OR OBSTRUCTIONS TO VISIBILITY.


SDZ001>005-009-010-012>017-190500-
NORTHWEST AND NORTH CENTRAL SOUTH DAKOTA

CITY           SKY/WX    TMP DP  RH WIND       PRES   REMARKS
BUFFALO          N/A     29  23  78 W10       29.89S WCI  20
FAITH            N/A     23  19  85 S12       29.99F WCI  12
MOBRIDGE       CLEAR     23  21  92 SE8       30.02F WCI  14
$$

SDZ012>016-024>037-041>051-057-063-072>074-190500-
SOUTHWEST AND SOUTH CENTRAL SOUTH DAKOTA

CITY           SKY/WX    TMP DP  RH WIND       PRES   REMARKS
RAPID CTY ARPT CLEAR     21  19  92 W3        30.01S
PIERRE         CLEAR     23  21  92 S3        30.06F
CUSTER         CLEAR     25  19  78 CALM      29.99S
ELLSWORTH AFB  CLEAR     28  20  73 W9        30.00S WCI  19
PHILIP         PTCLDY    15  12  88 W5        30.04S WCI   8
PINE RIDGE     PTCLDY    19  15  84 W3        30.05R
WINNER         FAIR      25  22  88 S7        30.07F WCI  17
$$

SDZ004>011-016>023-039-040-190500-
NORTHEAST SOUTH DAKOTA

CITY           SKY/WX    TMP DP  RH WIND       PRES   REMARKS
ABERDEEN       CLOUDY    27  23  85 S10       30.12S WCI  17
WATERTOWN      CLOUDY    24  22  91 S9        30.12S FOG     WCI  14
SISSETON         N/A     21  20  96 S12       30.15S WCI   9
$$

SDZ017-020-022-023-036>040-048>070-190500-
SOUTHEAST SOUTH DAKOTA

CITY           SKY/WX    TMP DP  RH WIND       PRES   REMARKS
SIOUX FALLS    CLOUDY    27  23  85 S8        30.17S WCI  19
HURON          CLOUDY    27  24  89 S8        30.13S WCI  19
MITCHELL       CLOUDY    28  25  88 S10       30.15F WCI  19
YANKTON        CLOUDY    28  25  86 S8        30.19F WCI  20
$$

ABBREVIATIONS USED IN REMARKS
   TC - TEMPERATURE IN CELSIUS
  WCI - WIND CHILL INDEX
   HX - HEAT INDEX
  VSB - VISIBILITY



USA.gov is the U.S. government's official web portal to all federal, state and local government web resources and services.